RYR4106 EPGD-EPWR

Flight info

Callsign RYR4106
Flight time N/A
Altitude 32000
Route IRLUN N133 BIBKA DCT UVIVI
Aircraft B738/M-SDE2E3FGHIRWXY/LB1

Departure

Time 2026-05-05 15:33
Airport Gdańsk Lech Wałęsa Airport (EPGD)

Arrival

Time N/A
Airport Copernicus Wrocław Airport (EPWR)
Time Latitude Longitude Altitude Speed Heading
2026-05-05 15:13 54.38143 18.46500 472 ft 0 kts 22°
2026-05-05 15:25 54.38136 18.46495 471 ft 4 kts 19°
2026-05-05 15:25 54.38111 18.46488 472 ft 4 kts 346°
2026-05-05 15:25 54.38091 18.46509 466 ft 3 kts 296°
2026-05-05 15:26 54.38089 18.46514 468 ft 0 kts 294°
2026-05-05 15:28 54.38112 18.46430 473 ft 15 kts 292°
2026-05-05 15:28 54.38148 18.46280 473 ft 13 kts 292°
2026-05-05 15:29 54.38175 18.46138 473 ft 13 kts 263°
2026-05-05 15:29 54.38107 18.46042 470 ft 14 kts 234°
2026-05-05 15:29 54.38118 18.45876 473 ft 17 kts 291°
2026-05-05 15:29 54.38144 18.45696 473 ft 13 kts 249°
2026-05-05 15:30 54.38110 18.45636 473 ft 0 kts 202°
2026-05-05 15:31 54.38079 18.45614 474 ft 14 kts 202°
2026-05-05 15:31 54.38003 18.45620 478 ft 6 kts 101°
2026-05-05 15:31 54.37997 18.45656 478 ft 0 kts 112°
2026-05-05 15:32 54.37989 18.45689 474 ft 19 kts 112°
2026-05-05 15:32 54.37825 18.46351 475 ft 98 kts 112°
2026-05-05 15:33 54.37473 18.47785 539 ft 156 kts 111°
2026-05-05 15:33 54.37027 18.49541 1327 ft 160 kts 112°
2026-05-05 15:33 54.36571 18.51357 2134 ft 175 kts 111°
2026-05-05 15:33 54.36077 18.53393 2659 ft 202 kts 112°
2026-05-05 15:34 54.35530 18.55678 3332 ft 210 kts 112°
2026-05-05 15:34 54.34937 18.58093 3748 ft 229 kts 113°
2026-05-05 15:34 54.34297 18.60657 4369 ft 237 kts 113°
2026-05-05 15:34 54.33466 18.63084 4832 ft 236 kts 137°
2026-05-05 15:35 54.32118 18.64646 4995 ft 238 kts 160°
2026-05-05 15:35 54.30548 18.65579 5077 ft 251 kts 171°
2026-05-05 15:35 54.28800 18.65217 5673 ft 261 kts 205°
2026-05-05 15:35 54.27175 18.63857 6705 ft 259 kts 207°
2026-05-05 15:36 54.25532 18.62543 7641 ft 263 kts 206°
2026-05-05 15:36 54.23738 18.61772 8515 ft 272 kts 185°
2026-05-05 15:36 54.21827 18.61758 9454 ft 277 kts 183°
2026-05-05 15:36 54.19882 18.61783 10265 ft 284 kts 183°
2026-05-05 15:37 54.17826 18.61797 10545 ft 309 kts 183°
2026-05-05 15:37 54.15612 18.61801 11042 ft 324 kts 183°
2026-05-05 15:37 54.13339 18.61800 11846 ft 328 kts 184°
2026-05-05 15:37 54.11049 18.61793 12748 ft 330 kts 184°
2026-05-05 15:38 54.08745 18.61780 13623 ft 333 kts 184°
2026-05-05 15:38 54.06417 18.61761 14359 ft 337 kts 184°
2026-05-05 15:38 54.04059 18.61741 15117 ft 340 kts 184°
2026-05-05 15:38 54.01686 18.61720 15891 ft 342 kts 185°
2026-05-05 15:39 53.99294 18.61698 16621 ft 346 kts 185°
2026-05-05 15:39 53.96878 18.61675 17337 ft 349 kts 185°
2026-05-05 15:39 53.94436 18.61652 18074 ft 352 kts 185°
2026-05-05 15:39 53.91974 18.61629 18726 ft 356 kts 185°
2026-05-05 15:40 53.89491 18.61607 19374 ft 358 kts 185°
2026-05-05 15:40 53.86989 18.61586 20033 ft 361 kts 185°
2026-05-05 15:40 53.84466 18.61564 20665 ft 364 kts 185°
2026-05-05 15:40 53.81924 18.61541 21183 ft 370 kts 185°
2026-05-05 15:41 53.79320 18.61516 21593 ft 378 kts 185°
2026-05-05 15:41 53.76680 18.61498 22206 ft 381 kts 184°
2026-05-05 15:41 53.74034 18.62120 22839 ft 393 kts 166°
2026-05-05 15:41 53.71488 18.63905 23476 ft 398 kts 161°
2026-05-05 15:42 53.68945 18.65818 23927 ft 402 kts 161°
2026-05-05 15:42 53.66406 18.67723 24338 ft 407 kts 161°
2026-05-05 15:42 53.63805 18.69650 24777 ft 410 kts 162°
2026-05-05 15:42 53.61182 18.71571 25234 ft 412 kts 162°
2026-05-05 15:43 53.58538 18.73492 25688 ft 415 kts 162°
2026-05-05 15:43 53.55878 18.75416 26097 ft 418 kts 162°
2026-05-05 15:43 53.53191 18.77355 26518 ft 422 kts 162°
2026-05-05 15:43 53.50467 18.79159 26947 ft 420 kts 166°
2026-05-05 15:44 53.47690 18.80675 27500 ft 418 kts 168°
2026-05-05 15:44 53.44915 18.82087 28119 ft 415 kts 169°
2026-05-05 15:44 53.42150 18.83479 28697 ft 414 kts 169°
2026-05-05 15:44 53.39394 18.84883 29216 ft 415 kts 169°
2026-05-05 15:45 53.36632 18.86311 29666 ft 416 kts 168°
2026-05-05 15:45 53.33867 18.87755 30122 ft 417 kts 168°
2026-05-05 15:45 53.31111 18.89204 30621 ft 414 kts 168°
2026-05-05 15:45 53.28368 18.90646 31150 ft 412 kts 168°
2026-05-05 15:46 53.25639 18.92077 31592 ft 411 kts 169°
2026-05-05 15:46 53.22910 18.93499 31842 ft 413 kts 169°
2026-05-05 15:46 53.20099 18.94353 31843 ft 407 kts 184°
2026-05-05 15:46 53.17307 18.94008 31844 ft 398 kts 197°
2026-05-05 15:47 53.14722 18.92655 31853 ft 385 kts 208°
2026-05-05 15:47 53.09815 18.89183 31851 ft 383 kts 208°
2026-05-05 15:48 53.04905 18.85720 31848 ft 384 kts 208°
2026-05-05 15:48 52.99984 18.82297 31842 ft 386 kts 208°
2026-05-05 15:49 52.95027 18.78879 31825 ft 386 kts 207°
2026-05-05 15:49 52.90053 18.75465 31834 ft 387 kts 207°
2026-05-05 15:50 52.85078 18.72061 31828 ft 387 kts 207°
2026-05-05 15:50 52.80096 18.68661 31828 ft 387 kts 207°
2026-05-05 15:51 52.75120 18.65272 31807 ft 387 kts 207°
2026-05-05 15:51 52.70179 18.61917 31824 ft 386 kts 207°
2026-05-05 15:52 52.65203 18.58544 31822 ft 386 kts 207°
2026-05-05 15:52 52.60253 18.55201 31799 ft 379 kts 207°
2026-05-05 15:52 52.57823 18.53565 31515 ft 373 kts 207°
2026-05-05 15:53 52.55410 18.51943 31218 ft 368 kts 207°
2026-05-05 15:53 52.53086 18.50379 30883 ft 364 kts 207°
2026-05-05 15:53 52.50752 18.48809 30530 ft 361 kts 206°
2026-05-05 15:53 52.48433 18.47250 30183 ft 359 kts 206°
2026-05-05 15:54 52.46130 18.45703 29832 ft 356 kts 206°
2026-05-05 15:54 52.43846 18.44172 29435 ft 354 kts 206°
2026-05-05 15:54 52.41576 18.42653 29067 ft 350 kts 206°
2026-05-05 15:54 52.39334 18.41154 28697 ft 347 kts 206°
2026-05-05 15:55 52.37110 18.39669 28351 ft 343 kts 206°
2026-05-05 15:55 52.34909 18.38201 27989 ft 340 kts 206°
2026-05-05 15:55 52.32729 18.36748 27634 ft 337 kts 206°
2026-05-05 15:55 52.30560 18.35304 27276 ft 335 kts 206°
2026-05-05 15:56 52.28412 18.33873 26926 ft 332 kts 206°
2026-05-05 15:56 52.26277 18.32455 26584 ft 330 kts 206°
2026-05-05 15:56 52.24160 18.31050 26250 ft 328 kts 206°
2026-05-05 15:56 52.22056 18.29655 25914 ft 326 kts 206°
2026-05-05 15:57 52.19962 18.28268 25577 ft 324 kts 206°
2026-05-05 15:57 52.17881 18.26891 25251 ft 322 kts 206°
2026-05-05 15:57 52.15812 18.25524 24924 ft 320 kts 205°
2026-05-05 15:57 52.13752 18.24163 24595 ft 319 kts 205°
2026-05-05 15:58 52.11704 18.22812 24261 ft 318 kts 205°
2026-05-05 15:58 52.09657 18.21463 23933 ft 316 kts 205°
2026-05-05 15:58 52.07623 18.20123 23608 ft 315 kts 205°
2026-05-05 15:58 52.05596 18.18790 23264 ft 314 kts 205°
2026-05-05 15:59 52.03573 18.17461 22882 ft 313 kts 205°
2026-05-05 15:59 52.01559 18.16139 22529 ft 311 kts 205°
2026-05-05 15:59 51.99574 18.14837 22202 ft 309 kts 205°
2026-05-05 15:59 51.97587 18.13536 21884 ft 306 kts 205°
2026-05-05 16:00 51.95619 18.12248 21559 ft 304 kts 205°
2026-05-05 16:00 51.93666 18.10971 21241 ft 302 kts 205°
2026-05-05 16:00 51.91726 18.09704 20930 ft 300 kts 205°
2026-05-05 16:00 51.89797 18.08445 20619 ft 298 kts 205°
2026-05-05 16:01 51.87881 18.07195 20298 ft 296 kts 205°
2026-05-05 16:01 51.85975 18.05953 20003 ft 294 kts 205°
2026-05-05 16:01 51.84080 18.04720 19687 ft 294 kts 205°
2026-05-05 16:01 51.82177 18.03481 19389 ft 296 kts 204°
2026-05-05 16:02 51.80259 18.02234 19085 ft 300 kts 204°
2026-05-05 16:02 51.78302 18.00962 18785 ft 306 kts 204°
2026-05-05 16:02 51.76377 17.99713 18458 ft 308 kts 204°
2026-05-05 16:02 51.74414 17.98442 18132 ft 307 kts 204°
2026-05-05 16:03 51.72413 17.97147 17765 ft 305 kts 204°
2026-05-05 16:03 51.70447 17.95876 17415 ft 303 kts 204°
2026-05-05 16:03 51.68492 17.94614 17079 ft 301 kts 204°
2026-05-05 16:03 51.66555 17.93363 16764 ft 298 kts 204°
2026-05-05 16:04 51.64639 17.92126 16449 ft 296 kts 204°
2026-05-05 16:04 51.62756 17.90914 16126 ft 294 kts 204°
2026-05-05 16:04 51.60842 17.89682 15820 ft 292 kts 204°
2026-05-05 16:04 51.58967 17.88458 15509 ft 289 kts 207°
2026-05-05 16:05 51.57295 17.86771 15183 ft 286 kts 218°
2026-05-05 16:05 51.55726 17.84822 14873 ft 285 kts 219°
2026-05-05 16:05 51.54172 17.82867 14565 ft 283 kts 219°
2026-05-05 16:05 51.52619 17.80923 14262 ft 282 kts 218°
2026-05-05 16:06 51.51074 17.79004 13962 ft 280 kts 218°
2026-05-05 16:06 51.49534 17.77105 13664 ft 279 kts 218°
2026-05-05 16:06 51.47997 17.75218 13337 ft 278 kts 218°
2026-05-05 16:06 51.46463 17.73343 13025 ft 276 kts 218°
2026-05-05 16:07 51.44943 17.71488 12718 ft 274 kts 218°
2026-05-05 16:07 51.43426 17.69641 12417 ft 272 kts 218°
2026-05-05 16:07 51.41924 17.67814 12113 ft 270 kts 218°
2026-05-05 16:07 51.40431 17.66000 11819 ft 269 kts 218°
2026-05-05 16:08 51.38945 17.64196 11526 ft 267 kts 218°
2026-05-05 16:08 51.37470 17.62407 11232 ft 265 kts 218°
2026-05-05 16:08 51.35998 17.60624 10950 ft 265 kts 218°
2026-05-05 16:08 51.34534 17.58852 10661 ft 264 kts 218°
2026-05-05 16:09 51.33074 17.57089 10365 ft 263 kts 218°
2026-05-05 16:09 51.31609 17.55345 10087 ft 262 kts 214°
2026-05-05 16:09 51.29992 17.54036 9901 ft 257 kts 204°
2026-05-05 16:09 51.28350 17.52987 9714 ft 254 kts 203°
2026-05-05 16:10 51.26710 17.51941 9418 ft 253 kts 204°
2026-05-05 16:10 51.25082 17.50878 9140 ft 253 kts 204°
2026-05-05 16:10 51.23459 17.49802 8861 ft 252 kts 204°
2026-05-05 16:10 51.21843 17.48724 8582 ft 251 kts 204°
2026-05-05 16:11 51.20233 17.47647 8303 ft 250 kts 203°
2026-05-05 16:11 51.15461 17.44459 7501 ft 248 kts 202°
2026-05-05 16:12 51.13870 17.43397 7227 ft 248 kts 202°
2026-05-05 16:12 51.10705 17.41284 6793 ft 243 kts 202°
2026-05-05 16:13 51.05929 17.38105 6131 ft 259 kts 202°
2026-05-05 16:13 51.04269 17.36929 5886 ft 260 kts 205°
2026-05-05 16:13 51.02660 17.35660 5659 ft 257 kts 206°
2026-05-05 16:14 50.99517 17.33159 5239 ft 250 kts 208°
2026-05-05 16:14 50.97997 17.28658 4804 ft 246 kts 280°
2026-05-05 16:15 50.99497 17.23914 4428 ft 237 kts 296°
2026-05-05 16:15 51.00892 17.19399 3979 ft 216 kts 295°
2026-05-05 16:16 51.01938 17.15942 3606 ft 199 kts 295°
2026-05-05 16:16 51.03077 17.12184 3345 ft 180 kts 296°
2026-05-05 16:17 51.04154 17.08640 2915 ft 172 kts 297°
2026-05-05 16:17 51.04663 17.06961 2703 ft 166 kts 298°
2026-05-05 16:18 51.05649 17.03737 2291 ft 161 kts 301°
2026-05-05 16:18 51.06134 17.02134 2049 ft 159 kts 301°
2026-05-05 16:18 51.07040 16.99162 1671 ft 148 kts 299°
2026-05-05 16:19 51.07492 16.97676 1474 ft 149 kts 299°
2026-05-05 16:19 51.07956 16.96143 1298 ft 157 kts 300°
2026-05-05 16:19 51.08832 16.93120 880 ft 145 kts 300°
2026-05-05 16:20 51.09736 16.90263 507 ft 145 kts 298°
2026-05-05 16:20 51.10613 16.87511 589 ft 144 kts 298°
2026-05-05 16:21 51.11547 16.84434 1215 ft 167 kts 297°
2026-05-05 16:22 51.13207 16.78776 2712 ft 209 kts 300°
2026-05-05 16:22 51.14476 16.74712 2762 ft 193 kts 300°
2026-05-05 16:23 51.15732 16.70839 3016 ft 199 kts 302°
2026-05-05 16:23 51.16622 16.69201 3042 ft 196 kts 332°
2026-05-05 16:23 51.19103 16.69528 3047 ft 190 kts 30°
2026-05-05 16:24 51.20278 16.70563 3045 ft 195 kts 28°
2026-05-05 16:24 51.21463 16.71624 3028 ft 197 kts 36°
2026-05-05 16:24 51.21866 16.75616 3080 ft 219 kts 114°
2026-05-05 16:25 51.21192 16.77843 3033 ft 225 kts 111°
2026-05-05 16:25 51.19908 16.82466 3035 ft 228 kts 111°
2026-05-05 16:25 51.19275 16.84771 3040 ft 227 kts 110°
2026-05-05 16:26 51.18030 16.89398 3005 ft 227 kts 111°
2026-05-05 16:26 51.16814 16.93965 2999 ft 218 kts 110°
2026-05-05 16:27 51.16231 16.96190 2992 ft 216 kts 110°
2026-05-05 16:27 51.15650 16.98401 2994 ft 217 kts 110°
2026-05-05 16:27 51.15066 17.00627 3004 ft 219 kts 110°
2026-05-05 16:27 51.14469 17.02895 3013 ft 226 kts 112°
2026-05-05 16:28 51.13754 17.05154 2994 ft 229 kts 116°
2026-05-05 16:28 51.12983 17.07359 3006 ft 228 kts 118°
2026-05-05 16:28 51.12214 17.09529 3005 ft 222 kts 117°
2026-05-05 16:28 51.11450 17.11657 3012 ft 219 kts 117°
2026-05-05 16:29 51.10708 17.13729 3026 ft 212 kts 117°
2026-05-05 16:29 51.09922 17.15644 3001 ft 204 kts 135°
2026-05-05 16:29 51.08674 17.16400 3007 ft 191 kts 185°
2026-05-05 16:29 51.07460 17.15635 3015 ft 191 kts 211°
2026-05-05 16:30 51.06434 17.14272 2986 ft 195 kts 237°
2026-05-05 16:30 51.05841 17.12356 3010 ft 194 kts 252°
2026-05-05 16:30 51.05438 17.10327 2999 ft 192 kts 254°
2026-05-05 16:30 51.05045 17.08310 2995 ft 190 kts 253°
2026-05-05 16:31 51.04888 17.06273 2995 ft 187 kts 286°
2026-05-05 16:31 51.05470 17.04448 3016 ft 189 kts 301°
2026-05-05 16:31 51.06029 17.02532 2925 ft 192 kts 297°
2026-05-05 16:31 51.06582 17.00655 2783 ft 182 kts 299°
2026-05-05 16:32 51.07116 16.98903 2647 ft 172 kts 299°